Location: Raitis
(47.2167°N, 11.3833°E)
Time: 05:48:44
(UTC+00:00)

Cosmos 1959 Rocket - Pass Details

Date: 03 March 2021
Orbit: 948 x 996 km, 83.0° (Epoch: 22 April)

Event Time Altitude Azimuth Distance (km) Brightness Sun altitude
Rises 19:10:04 0° 186° (S) 3,608 7.4 -22.2°
Reaches altitude 10° 19:12:32 10° 186° (S) 2,665 6.7 -22.6°
Maximum altitude 19:18:38 90° 94° (E) 956 4.3 -23.6°
Drops below altitude 10° 19:24:48 10° 9° (N) 2,690 6.9 -24.6°
Sets 19:27:18 0° 9° (N) 3,644 7.6 -25.0°
